Regional Weather Roundup
Issued by NWS State College, PA

Home | Current Version | Previous Version | Graphics & Text | Print | Product List | Glossary On
Versions: 1 2 3 4 5 6 7 8 9 10 11 12 13 14 15 16 17 18 19 20 21 22 23 24 25 26 27 28 29 30 31 32 33 34 35 36 37 38 39 40 41 42 43 44 45 46 47 48 49 50
000
ASUS41 KCTP 140703
RWRCTP

REGIONAL WEATHER ROUNDUP
NATIONAL WEATHER SERVICE STATE COLLEGE PA
200 AM EST SUN FEB 14 2016

Note: "fair" indicates few or no clouds below 12,000 feet with no
significant weather and/or obstructions to visibility.

* = STATION THAT DOES NOT REPORT PRECIPITATION /E.G. RAIN...SNOW...ETC/
    THUNDER OR FOG.

PAZ002>004-007>009-013>016-020>023-029>032-140800-
WESTERN PENNSYLVANIA

CITY           SKY/WX    TMP DP  RH WIND       PRES   REMARKS
ERIE           CLOUDY    11   2  67 N14       30.42S WCI  -5
MEADVILLE      CLOUDY     6  -2  69 W7        30.34S WCI  -6
FRANKLIN*      CLOUDY     3  -6  66 W8        30.35S WCI -10
NEW CASTLE     FLURRIES  -2  -5  87 SW3       30.42S
BEAVER COUNTY  NOT AVBL
BUTLER*        CLEAR      0  -2  92 SW3       30.42S
PITTSBURGH INT LGT SNOW   4   0  83 CALM      30.41R FOG
PITTSBURGH     MOCLDY     6  -1  73 W7        30.40R WCI  -6
INDIANA*       CLEAR      0  -2  92 SW5       30.40R WCI -10
LATROBE        CLOUDY     1  -4  78 CALM      30.42S
WASHINGTON CO* CLEAR      0  -8  71 CALM      30.40R
$$

PAZ004>006-010>012-017>019-024>028-033>037-041-042-045-046-049>053-140800-
CENTRAL PENNSYLVANIA

CITY           SKY/WX    TMP DP  RH WIND       PRES   REMARKS
BRADFORD       PTCLDY    -3  -9  75 NW8       30.24R WCI -18
DUBOIS         CLOUDY    -1  -5  82 W7        30.28R WCI -14
CLEARFIELD     MOCLDY     1  -5  75 SW5       30.32R WCI  -9
JOHNSTOWN      CLEAR      1  -7  68 W15       30.24R WCI -18
ALTOONA        PTCLDY     5  -4  66 NW12G21   30.32S WCI -11
STATE COLLEGE  MOCLDY     5  -3  70 W7        30.33R WCI  -7
WILLIAMSPORT   CLEAR      5 -10  50 NW8       30.38R WCI  -8
SELINSGROVE    CLEAR      7  -8  50 NW9       30.39R WCI  -7
FT INDIANTOWN  PTCLDY     8  -8  47 W13       30.36R WCI  -8
CAPITAL CITY   PTCLDY    11  -7  44 NW14      30.39R WCI  -5
HARRISBURG     PTCLDY    11  -4  51 NW16G25   30.39R WCI  -6
YORK           PTCLDY     8  -7  50 NW10      30.38S WCI  -6
$$

PAZ038>040-043-044-047-048-054-055-060>062-067>071-140800-
EASTERN PENNSYLVANIA

CITY           SKY/WX    TMP DP  RH WIND       PRES   REMARKS
SCRANTON       CLOUDY     1 -11  57 NW10G24   30.30R WCI -15
MOUNT POCONO   CLOUDY    -5 -15  62 NW15G30   30.11S WCI -26
ALLENTOWN      MOCLDY     7  -9  48 NW10      30.34S WCI  -8
QUAKERTOWN*    MOSUNNY    7  -8  51 N8        30.33S WCI  -6
READING        CLEAR      8  -9  45 NW17G28   30.36S WCI -10
LANCASTER      PTCLDY     8  -4  58 W12       30.38R WCI  -7
COATESVILLE    SUNNY      9  -2  61 NW12G20   30.35R WCI  -6
POTTSTOWN      CLEAR      8  -9  45 NW10G21   30.37R WCI  -6
BLUE BELL        N/A     10  -8  44 NW14G20   30.35S WCI  -5
DOYLESTOWN     CLEAR      6 -10  47 W10G18    30.33R WCI  -9
WILLOW GROVE   NOT AVBL
NORTH PHILA    CLEAR     11  -9  40 NW12G22   30.38S WCI  -3
PHILADELPHIA   PTCLDY    12 -11  35 NW15      30.40R WCI  -4
$$



USA.gov is the U.S. government's official web portal to all federal, state and local government web resources and services.